Total_Precipitation_Accumulation
0.77 0.71 0.60 0.62 0.57 0.60 0.67 0.71 0.74 0.74 0.78 0.76 0.76 0.77 0.79 0.76 0.70 0.68 0.82 1.00 1.39 1.59 1.43 1.21 1.01 0.91 0.91 0.91 0.92 1.09 1.27 1.43 1.45 1.52 1.62 1.73 1.62 1.46 1.42 1.32 1.32 1.30 1.17
0.71 0.74 0.69 0.70 0.71 0.69 0.69 0.69 0.68 0.78 0.83 0.81 0.81 0.82 0.81 0.71 0.70 0.79 0.93 0.98 1.01 1.22 1.54 1.51 1.34 1.15 1.06 0.97 0.95 1.05 1.20 1.33 1.33 1.42 1.49 1.56 1.49 1.29 1.21 1.29 1.44 1.25 1.04
0.68 0.74 0.77 0.78 0.79 0.80 0.79 0.80 0.80 0.87 0.84 0.87 0.89 0.82 0.78 0.71 0.72 0.79 0.84 0.91 0.75 0.68 1.00 1.38 1.52 1.40 1.33 1.23 1.07 1.09 1.19 1.32 1.26 1.38 1.46 1.51 1.36 1.23 1.12 1.25 1.40 1.26 1.07
0.71 0.79 0.82 0.86 0.92 0.84 0.80 0.87 0.92 0.98 0.94 0.96 0.98 0.86 0.72 0.76 0.75 0.78 0.88 0.90 0.85 0.68 0.69 0.80 0.98 1.13 1.40 1.53 1.33 1.28 1.26 1.25 1.19 1.32 1.43 1.40 1.27 1.20 1.13 1.23 1.25 1.23 1.16
0.89 0.96 1.01 1.04 1.06 1.08 1.00 0.89 0.92 0.99 1.07 1.09 1.00 0.92 0.79 0.79 0.82 0.83 1.00 1.01 0.92 0.81 0.79 0.63 0.59 0.68 0.92 1.28 1.36 1.44 1.38 1.27 1.18 1.22 1.30 1.19 1.20 1.16 1.04 1.09 1.12 1.07 1.06
1.16 1.27 1.25 1.20 1.27 1.36 1.38 1.17 1.21 1.16 1.11 1.18 1.08 0.99 0.95 0.90 0.90 0.96 1.01 1.07 1.09 0.94 0.93 0.77 0.65 0.47 0.55 0.83 1.13 1.45 1.54 1.46 1.28 1.23 1.33 1.14 1.08 1.11 0.94 0.91 0.96 1.00 0.97
1.50 1.66 1.63 1.61 1.63 1.61 1.57 1.51 1.64 1.58 1.31 1.21 1.40 1.36 1.21 1.04 0.99 0.98 0.99 1.12 1.21 1.20 1.21 1.04 0.89 0.68 0.50 0.51 0.65 1.11 1.42 1.60 1.55 1.41 1.49 1.41 1.14 1.04 0.96 0.90 0.92 0.97 1.01
1.73 1.77 1.97 2.07 2.05 2.15 2.12 1.93 2.07 2.07 1.70 1.46 1.68 1.96 1.69 1.47 1.09 0.98 1.02 1.05 1.17 1.30 1.36 1.20 1.01 0.85 0.75 0.68 0.51 0.67 0.94 1.36 1.59 1.48 1.56 1.66 1.35 1.07 0.94 0.92 0.92 0.97 1.08
1.88 1.90 2.01 2.18 2.21 2.27 2.35 2.42 2.37 2.46 2.23 1.85 1.74 2.01 1.88 1.75 1.54 1.13 1.03 1.12 1.26 1.36 1.43 1.44 1.29 1.04 0.96 0.95 0.74 0.57 0.67 0.84 1.26 1.45 1.48 1.61 1.44 1.13 0.94 0.92 0.91 0.91 1.01
2.07 2.14 2.16 2.26 2.30 2.32 2.41 2.51 2.46 2.59 2.64 2.26 2.00 1.78 1.60 1.60 1.71 1.47 1.21 1.16 1.32 1.38 1.42 1.47 1.49 1.32 1.14 1.15 0.99 0.77 0.75 0.79 1.00 1.41 1.58 1.56 1.47 1.28 1.05 0.99 0.96 0.90 0.95
2.18 2.22 2.28 2.44 2.43 2.40 2.38 2.59 2.64 2.72 2.64 2.56 2.41 2.24 2.08 1.83 1.49 1.57 1.57 1.40 1.30 1.22 1.30 1.43 1.58 1.52 1.37 1.30 1.33 1.02 0.79 0.72 0.76 1.25 1.57 1.71 1.61 1.51 1.41 1.31 1.16 1.02 0.96
2.21 2.10 2.03 2.17 2.24 2.27 2.25 2.43 2.61 2.74 2.73 2.75 2.65 2.36 2.30 2.16 1.81 1.74 1.60 1.48 1.47 1.28 1.22 1.28 1.35 1.36 1.38 1.35 1.29 1.26 0.97 0.74 0.62 0.90 1.33 1.49 1.63 1.69 1.69 1.70 1.51 1.31 1.20
2.03 2.06 1.96 1.95 1.98 1.93 1.98 2.09 2.16 2.24 2.38 2.54 2.44 2.23 2.18 2.03 2.01 2.01 1.88 1.64 1.45 1.24 1.25 1.22 1.21 1.20 1.20 1.23 1.32 1.42 1.07 0.78 0.59 0.64 0.96 1.14 1.25 1.47 1.67 1.78 1.75 1.65 1.55
1.72 1.80 1.81 1.75 1.79 1.84 1.85 1.92 1.93 1.94 1.97 2.04 2.04 2.12 2.17 2.04 1.97 1.89 1.88 2.02 1.78 1.53 1.39 1.26 1.24 1.24 1.18 1.18 1.35 1.43 1.10 0.87 0.66 0.57 0.61 0.79 0.93 1.16 1.41 1.63 1.75 1.84 1.80
1.28 1.34 1.44 1.52 1.61 1.66 1.72 1.86 1.93 1.92 1.87 1.84 1.95 2.01 1.95 1.94 1.91 1.80 1.77 1.88 1.95 1.81 1.68 1.50 1.35 1.26 1.27 1.23 1.34 1.18 1.10 0.99 0.79 0.69 0.61 0.57 0.64 0.79 0.95 1.19 1.36 1.41 1.50
0.94 1.00 1.11 1.28 1.50 1.63 1.67 1.74 1.79 1.87 1.90 1.86 1.93 2.02 2.03 2.04 2.07 1.99 1.86 1.82 1.76 1.80 1.72 1.49 1.30 1.19 1.32 1.21 1.33 1.15 1.11 1.22 0.99 0.81 0.73 0.66 0.60 0.60 0.64 0.78 0.92 0.96 0.99
0.78 0.89 0.95 1.09 1.25 1.43 1.61 1.76 1.77 1.77 1.81 1.79 1.73 1.81 1.92 2.03 2.16 2.17 2.15 2.02 1.87 1.83 1.75 1.59 1.38 1.23 1.35 1.40 1.34 1.28 1.19 1.11 1.05 0.95 0.85 0.83 0.76 0.63 0.63 0.67 0.78 0.80 0.79
0.62 0.71 0.84 1.05 1.16 1.25 1.30 1.38 1.46 1.50 1.53 1.58 1.56 1.54 1.62 1.73 1.88 2.03 2.10 2.05 2.04 1.95 1.85 1.81 1.63 1.38 1.27 1.33 1.37 1.45 1.37 1.18 1.11 1.13 1.05 0.96 0.91 0.77 0.68 0.64 0.69 0.72 0.70
0.61 0.66 0.80 0.95 1.01 1.06 1.10 1.12 1.22 1.31 1.32 1.30 1.35 1.32 1.34 1.44 1.58 1.72 1.80 1.87 1.99 2.03 2.02 1.93 1.84 1.65 1.41 1.40 1.44 1.43 1.45 1.54 1.31 1.20 1.20 1.16 1.09 1.00 0.93 0.84 0.77 0.73 0.68
0.62 0.69 0.84 0.94 0.95 0.91 1.00 1.03 1.08 1.12 1.09 1.04 1.08 1.09 1.14 1.18 1.26 1.38 1.52 1.73 1.93 2.04 2.11 2.10 2.00 1.77 1.60 1.56 1.53 1.52 1.57 1.65 1.63 1.41 1.30 1.22 1.26 1.20 1.08 1.00 0.93 0.85 0.78
0.64 0.71 0.76 0.87 0.92 0.90 0.93 0.99 0.98 0.93 0.92 0.92 0.88 0.79 0.81 0.87 0.88 0.96 1.02 1.30 1.56 1.79 1.93 2.00 1.98 1.84 1.62 1.51 1.40 1.43 1.56 1.73 1.81 1.76 1.66 1.39 1.30 1.25 1.19 1.15 1.08 0.99 0.90
0.53 0.58 0.64 0.80 0.91 0.82 0.93 0.92 0.85 0.78 0.75 0.79 0.77 0.70 0.68 0.72 0.63 0.60 0.63 0.85 1.15 1.36 1.55 1.73 1.79 1.67 1.54 1.45 1.50 1.50 1.50 1.56 1.59 1.52 1.52 1.53 1.44 1.34 1.25 1.19 1.20 1.19 1.11
0.47 0.52 0.56 0.73 0.83 0.91 0.85 0.70 0.74 0.74 0.74 0.77 0.79 0.81 0.74 0.69 0.77 0.68 0.62 0.69 0.78 0.89 1.05 1.32 1.54 1.54 1.63 1.55 1.46 1.41 1.42 1.46 1.47 1.53 1.54 1.53 1.43 1.34 1.21 1.16 1.30 1.24 1.24
0.44 0.49 0.55 0.59 0.67 0.80 0.74 0.59 0.63 0.63 0.74 0.81 0.84 0.93 0.94 0.88 0.85 0.93 0.88 0.89 0.85 0.78 0.85 0.77 0.99 1.37 1.51 1.56 1.51 1.54 1.63 1.56 1.45 1.48 1.50 1.51 1.44 1.32 1.18 1.09 1.18 1.11 1.06
0.48 0.50 0.55 0.58 0.64 0.68 0.64 0.57 0.60 0.67 0.80 0.82 0.79 0.90 0.94 0.88 0.92 0.98 1.11 1.17 1.10 0.94 1.05 1.06 0.98 1.09 1.23 1.29 1.39 1.49 1.55 1.48 1.43 1.36 1.26 1.23 1.18 1.21 1.26 1.16 1.12 1.17 1.08
0.47 0.48 0.47 0.47 0.52 0.55 0.60 0.50 0.61 0.73 0.78 0.80 0.81 0.87 1.01 0.93 0.90 0.88 0.97 1.12 1.11 0.98 0.86 0.90 0.87 0.77 0.71 0.82 1.01 1.18 1.46 1.56 1.50 1.40 1.21 1.15 1.16 1.14 1.17 1.10 1.01 1.05 1.04